NOTE: This page is experimental. Bug reports to carter.barry@gmail.com. Query language is SQLite3.

Prepend rss. to the URL for an RSS feed, csv. to the URL for CSV output.

QUERY: SELECT station_id AS "Code", observation_time AS "Time (GMT)", ROUND(altim_in_hg,2) AS "Pressure (inches)", ROUND(temp_c*1.8+32, 1) AS "Temp. (F)", ROUND(wind_speed_kt*1.15077945) AS "Wind (mph)", (CASE WHEN wind_gust_kt THEN ROUND(wind_gust_kt*1.15077945) ELSE "NA" END) AS "Gust (mph)", DATETIME(observation_time,'-7 hours') AS "Time (MST)" FROM metar WHERE station_id='KABQ' ORDER BY observation_time DESC

To edit query (or if query above is munged), see textbox at bottom of page

Empty result may indicate error: I'm not sure why my error checking code isn't working.

Source code

Code Time (GMT) Pressure (inches) Temp. (F) Wind (mph) Gust (mph) Time (MST)
KABQ 2017-02-27T05:52:00Z 29.93 39.0 8.0 NA 2017-02-26 22:52:00
KABQ 2017-02-27T04:52:00Z 29.94 37.9 3.0 NA 2017-02-26 21:52:00
KABQ 2017-02-27T03:52:00Z 29.93 41.0 3.0 NA 2017-02-26 20:52:00
KABQ 2017-02-27T02:52:00Z 29.92 41.0 5.0 NA 2017-02-26 19:52:00
KABQ 2017-02-27T01:52:00Z 29.92 42.1 6.0 NA 2017-02-26 18:52:00
KABQ 2017-02-27T00:52:00Z 29.91 42.1 9.0 NA 2017-02-26 17:52:00
KABQ 2017-02-26T23:52:00Z 29.89 42.1 7.0 NA 2017-02-26 16:52:00
KABQ 2017-02-26T22:52:00Z 29.91 42.1 3.0 NA 2017-02-26 15:52:00
KABQ 2017-02-26T21:52:00Z 29.9 41.0 15.0 NA 2017-02-26 14:52:00
KABQ 2017-02-26T20:52:00Z 29.91 44.1 16.0 NA 2017-02-26 13:52:00
KABQ 2017-02-26T19:52:00Z 29.92 43.0 8.0 NA 2017-02-26 12:52:00
KABQ 2017-02-26T18:52:00Z 29.94 44.1 3.0 NA 2017-02-26 11:52:00
KABQ 2017-02-26T17:52:00Z 29.97 41.0 5.0 NA 2017-02-26 10:52:00
KABQ 2017-02-26T16:52:00Z 29.98 39.0 8.0 NA 2017-02-26 09:52:00
KABQ 2017-02-26T15:52:00Z 29.98 36.0 0.0 NA 2017-02-26 08:52:00
KABQ 2017-02-26T14:52:00Z 29.96 35.1 8.0 NA 2017-02-26 07:52:00
KABQ 2017-02-26T13:52:00Z 29.94 34.0 5.0 NA 2017-02-26 06:52:00
KABQ 2017-02-26T12:52:00Z 29.93 36.0 7.0 NA 2017-02-26 05:52:00
KABQ 2017-02-26T11:52:00Z 29.91 36.0 6.0 NA 2017-02-26 04:52:00
KABQ 2017-02-26T10:52:00Z 29.89 39.0 9.0 NA 2017-02-26 03:52:00
KABQ 2017-02-26T09:52:00Z 29.88 39.9 9.0 NA 2017-02-26 02:52:00
KABQ 2017-02-26T08:52:00Z 29.88 41.0 12.0 NA 2017-02-26 01:52:00
KABQ 2017-02-26T07:52:00Z 29.88 39.9 5.0 NA 2017-02-26 00:52:00
KABQ 2017-02-26T06:52:00Z 29.89 39.9 5.0 NA 2017-02-25 23:52:00

Enter query below (must start w/ SELECT):

Schema Raw SQLite3 db RSS feed for this query